Year,Month,Day,Hour,Minute,Value (Times are PST for insolation in W/m^2)
2016,01,23,00,00,0.00
2016,01,23,00,01,0.00
2016,01,23,00,02,0.00
2016,01,23,00,03,0.00
2016,01,23,00,04,0.00
2016,01,23,00,05,0.00
2016,01,23,00,06,0.00
2016,01,23,00,07,0.00
2016,01,23,00,08,0.00
2016,01,23,00,09,0.00
2016,01,23,00,10,0.00
2016,01,23,00,11,0.00
2016,01,23,00,12,0.00
2016,01,23,00,13,0.00
2016,01,23,00,14,0.00
2016,01,23,00,15,0.00
2016,01,23,00,16,0.00
2016,01,23,00,17,0.00
2016,01,23,00,18,0.00
2016,01,23,00,19,0.00
2016,01,23,00,20,0.00
2016,01,23,00,21,0.00
2016,01,23,00,22,0.00
2016,01,23,00,23,0.00
2016,01,23,00,24,0.00
2016,01,23,00,25,0.00
2016,01,23,00,26,0.00
2016,01,23,00,27,0.00
2016,01,23,00,28,0.00
2016,01,23,00,29,0.00
2016,01,23,00,30,0.00
2016,01,23,00,31,0.00
2016,01,23,00,32,0.00
2016,01,23,00,33,0.00
2016,01,23,00,34,0.00
2016,01,23,00,35,0.00
2016,01,23,00,36,0.00
2016,01,23,00,37,0.00
2016,01,23,00,38,0.00
2016,01,23,00,39,0.00
2016,01,23,00,40,0.00
2016,01,23,00,41,0.00
2016,01,23,00,42,0.00
2016,01,23,00,43,0.00
2016,01,23,00,44,0.00
2016,01,23,00,45,0.00
2016,01,23,00,46,0.00
2016,01,23,00,47,0.00
2016,01,23,00,48,0.00
2016,01,23,00,49,0.00
2016,01,23,00,50,0.00
2016,01,23,00,51,0.00
2016,01,23,00,52,0.00
2016,01,23,00,53,0.00
2016,01,23,00,54,0.00
2016,01,23,00,55,0.00
2016,01,23,00,56,0.00
2016,01,23,00,57,0.00
2016,01,23,00,58,0.00
2016,01,23,00,59,0.00
2016,01,23,01,00,0.00
2016,01,23,01,01,0.00
2016,01,23,01,02,0.00
2016,01,23,01,03,0.00
2016,01,23,01,04,0.00
2016,01,23,01,05,0.00
2016,01,23,01,06,0.00
2016,01,23,01,07,0.00
2016,01,23,01,08,0.00
2016,01,23,01,09,0.00
2016,01,23,01,10,0.00
2016,01,23,01,11,0.00
2016,01,23,01,12,0.00
2016,01,23,01,13,0.00
2016,01,23,01,14,0.00
2016,01,23,01,15,0.00
2016,01,23,01,16,0.00
2016,01,23,01,17,0.00
2016,01,23,01,18,0.00
2016,01,23,01,19,0.00
2016,01,23,01,20,0.00
2016,01,23,01,21,0.00
2016,01,23,01,22,0.00
2016,01,23,01,23,0.00
2016,01,23,01,24,0.00
2016,01,23,01,25,0.00
2016,01,23,01,26,0.00
2016,01,23,01,27,0.00
2016,01,23,01,28,0.00
2016,01,23,01,29,0.00
2016,01,23,01,30,0.00
2016,01,23,01,31,0.00
2016,01,23,01,32,0.00
2016,01,23,01,33,0.00
2016,01,23,01,34,0.00
2016,01,23,01,35,0.00
2016,01,23,01,36,0.00
2016,01,23,01,37,0.00
2016,01,23,01,38,0.00
2016,01,23,01,39,0.00
2016,01,23,01,40,0.00
2016,01,23,01,41,0.00
2016,01,23,01,42,0.00
2016,01,23,01,43,0.00
2016,01,23,01,44,0.00
2016,01,23,01,45,0.00
2016,01,23,01,46,0.00
2016,01,23,01,47,0.00
2016,01,23,01,48,0.00
2016,01,23,01,49,0.00
2016,01,23,01,50,0.00
2016,01,23,01,51,0.00
2016,01,23,01,52,0.00
2016,01,23,01,53,0.00
2016,01,23,01,54,0.00
2016,01,23,01,55,0.00
2016,01,23,01,56,0.00
2016,01,23,01,57,0.00
2016,01,23,01,58,0.00
2016,01,23,01,59,0.00
2016,01,23,02,00,0.00
2016,01,23,02,01,0.00
2016,01,23,02,02,0.00
2016,01,23,02,03,0.00
2016,01,23,02,04,0.00
2016,01,23,02,05,0.00
2016,01,23,02,06,0.00
2016,01,23,02,07,0.00
2016,01,23,02,08,0.00
2016,01,23,02,09,0.00
2016,01,23,02,10,0.00
2016,01,23,02,11,0.00
2016,01,23,02,12,0.00
2016,01,23,02,13,0.00
2016,01,23,02,14,0.00
2016,01,23,02,15,0.00
2016,01,23,02,16,0.00
2016,01,23,02,17,0.00
2016,01,23,02,18,0.00
2016,01,23,02,19,0.00
2016,01,23,02,20,0.00
2016,01,23,02,21,0.00
2016,01,23,02,22,0.00
2016,01,23,02,23,0.00
2016,01,23,02,24,0.00
2016,01,23,02,25,0.00
2016,01,23,02,26,0.00
2016,01,23,02,27,0.00
2016,01,23,02,28,0.00
2016,01,23,02,29,0.00
2016,01,23,02,30,0.00
2016,01,23,02,31,0.00
2016,01,23,02,32,0.00
2016,01,23,02,33,0.00
2016,01,23,02,34,0.00
2016,01,23,02,35,0.00
2016,01,23,02,36,0.00
2016,01,23,02,37,0.00
2016,01,23,02,38,0.00
2016,01,23,02,39,0.00
2016,01,23,02,40,0.00
2016,01,23,02,41,0.00
2016,01,23,02,42,0.00
2016,01,23,02,43,0.00
2016,01,23,02,44,0.00
2016,01,23,02,45,0.00
2016,01,23,02,46,0.00
2016,01,23,02,47,0.00
2016,01,23,02,48,0.00
2016,01,23,02,49,0.00
2016,01,23,02,50,0.00
2016,01,23,02,51,0.00
2016,01,23,02,52,0.00
2016,01,23,02,53,0.00
2016,01,23,02,54,0.00
2016,01,23,02,55,0.00
2016,01,23,02,56,0.00
2016,01,23,02,57,0.00
2016,01,23,02,58,0.00
2016,01,23,02,59,0.00
2016,01,23,03,00,0.00
2016,01,23,03,01,0.00
2016,01,23,03,02,0.00
2016,01,23,03,03,0.00
2016,01,23,03,04,0.00
2016,01,23,03,05,0.00
2016,01,23,03,06,0.00
2016,01,23,03,07,0.00
2016,01,23,03,08,0.00
2016,01,23,03,09,0.00
2016,01,23,03,10,0.00
2016,01,23,03,11,0.00
2016,01,23,03,12,0.00
2016,01,23,03,13,0.00
2016,01,23,03,14,0.00
2016,01,23,03,15,0.00
2016,01,23,03,16,0.00
2016,01,23,03,17,0.00
2016,01,23,03,18,0.00
2016,01,23,03,19,0.00
2016,01,23,03,20,0.00
2016,01,23,03,21,0.00
2016,01,23,03,22,0.00
2016,01,23,03,23,0.00
2016,01,23,03,24,0.00
2016,01,23,03,25,0.00
2016,01,23,03,26,0.00
2016,01,23,03,27,0.00
2016,01,23,03,28,0.00
2016,01,23,03,29,0.00
2016,01,23,03,30,0.00
2016,01,23,03,31,0.00
2016,01,23,03,32,0.00
2016,01,23,03,33,0.00
2016,01,23,03,34,0.00
2016,01,23,03,35,0.00
2016,01,23,03,36,0.00
2016,01,23,03,37,0.00
2016,01,23,03,38,0.00
2016,01,23,03,39,0.00
2016,01,23,03,40,0.00
2016,01,23,03,41,0.00
2016,01,23,03,42,0.00
2016,01,23,03,43,0.00
2016,01,23,03,44,0.00
2016,01,23,03,45,0.00
2016,01,23,03,46,0.00
2016,01,23,03,47,0.00
2016,01,23,03,48,0.00
2016,01,23,03,49,0.00
2016,01,23,03,50,0.00
2016,01,23,03,51,0.00
2016,01,23,03,52,0.00
2016,01,23,03,53,0.00
2016,01,23,03,54,0.00
2016,01,23,03,55,0.00
2016,01,23,03,56,0.00
2016,01,23,03,57,0.00
2016,01,23,03,58,0.00
2016,01,23,03,59,0.00
2016,01,23,04,00,0.00
2016,01,23,04,01,0.00
2016,01,23,04,02,0.00
2016,01,23,04,03,0.00
2016,01,23,04,04,0.00
2016,01,23,04,05,0.00
2016,01,23,04,06,0.00
2016,01,23,04,07,0.00
2016,01,23,04,08,0.00
2016,01,23,04,09,0.00
2016,01,23,04,10,0.00
2016,01,23,04,11,0.00
2016,01,23,04,12,0.00
2016,01,23,04,13,0.00
2016,01,23,04,14,0.00
2016,01,23,04,15,0.00
2016,01,23,04,16,0.00
2016,01,23,04,17,0.00
2016,01,23,04,18,0.00
2016,01,23,04,19,0.00
2016,01,23,04,20,0.00
2016,01,23,04,21,0.00
2016,01,23,04,22,0.00
2016,01,23,04,23,0.00
2016,01,23,04,24,0.00
2016,01,23,04,25,0.00
2016,01,23,04,26,0.00
2016,01,23,04,27,0.00
2016,01,23,04,28,0.00
2016,01,23,04,29,0.00
2016,01,23,04,30,0.00
2016,01,23,04,31,0.00
2016,01,23,04,32,0.00
2016,01,23,04,33,0.00
2016,01,23,04,34,0.00
2016,01,23,04,35,0.00
2016,01,23,04,36,0.00
2016,01,23,04,37,0.00
2016,01,23,04,38,0.00
2016,01,23,04,39,0.00
2016,01,23,04,40,0.00
2016,01,23,04,41,0.00
2016,01,23,04,42,0.00
2016,01,23,04,43,0.00
2016,01,23,04,44,0.00
2016,01,23,04,45,0.00
2016,01,23,04,46,0.00
2016,01,23,04,47,0.00
2016,01,23,04,48,0.00
2016,01,23,04,49,0.00
2016,01,23,04,50,0.00
2016,01,23,04,51,0.00
2016,01,23,04,52,0.00
2016,01,23,04,53,0.00
2016,01,23,04,54,0.00
2016,01,23,04,55,0.00
2016,01,23,04,56,0.00
2016,01,23,04,57,0.00
2016,01,23,04,58,0.00
2016,01,23,04,59,0.00
2016,01,23,05,00,0.00
2016,01,23,05,01,0.00
2016,01,23,05,02,0.00
2016,01,23,05,03,0.00
2016,01,23,05,04,0.00
2016,01,23,05,05,0.00
2016,01,23,05,06,0.00
2016,01,23,05,07,0.00
2016,01,23,05,08,0.00
2016,01,23,05,09,0.00
2016,01,23,05,10,0.00
2016,01,23,05,11,0.00
2016,01,23,05,12,0.00
2016,01,23,05,13,0.00
2016,01,23,05,14,0.00
2016,01,23,05,15,0.00
2016,01,23,05,16,0.00
2016,01,23,05,17,0.00
2016,01,23,05,18,0.00
2016,01,23,05,19,0.00
2016,01,23,05,20,0.00
2016,01,23,05,21,0.00
2016,01,23,05,22,0.00
2016,01,23,05,23,0.00
2016,01,23,05,24,0.00
2016,01,23,05,25,0.00
2016,01,23,05,26,0.00
2016,01,23,05,27,0.00
2016,01,23,05,28,0.00
2016,01,23,05,29,0.00
2016,01,23,05,30,0.00
2016,01,23,05,31,0.00
2016,01,23,05,32,0.00
2016,01,23,05,33,0.00
2016,01,23,05,34,0.00
2016,01,23,05,35,0.00
2016,01,23,05,36,0.00
2016,01,23,05,37,0.00
2016,01,23,05,38,0.00
2016,01,23,05,39,0.00
2016,01,23,05,40,0.00
2016,01,23,05,41,0.00
2016,01,23,05,42,0.00
2016,01,23,05,43,0.00
2016,01,23,05,44,0.00
2016,01,23,05,45,0.00
2016,01,23,05,46,0.00
2016,01,23,05,47,0.00
2016,01,23,05,48,0.00
2016,01,23,05,49,0.00
2016,01,23,05,50,0.00
2016,01,23,05,51,0.00
2016,01,23,05,52,0.00
2016,01,23,05,53,0.00
2016,01,23,05,54,0.00
2016,01,23,05,55,0.00
2016,01,23,05,56,0.00
2016,01,23,05,57,0.00
2016,01,23,05,58,0.00
2016,01,23,05,59,0.00
2016,01,23,06,00,0.00
2016,01,23,06,01,0.00
2016,01,23,06,02,0.00
2016,01,23,06,03,0.00
2016,01,23,06,04,0.00
2016,01,23,06,05,0.00
2016,01,23,06,06,0.00
2016,01,23,06,07,0.00
2016,01,23,06,08,0.00
2016,01,23,06,09,0.00
2016,01,23,06,10,0.00
2016,01,23,06,11,0.00
2016,01,23,06,12,0.00
2016,01,23,06,13,0.00
2016,01,23,06,14,0.00
2016,01,23,06,15,0.00
2016,01,23,06,16,0.00
2016,01,23,06,17,0.00
2016,01,23,06,18,0.00
2016,01,23,06,19,0.00
2016,01,23,06,20,0.00
2016,01,23,06,21,0.00
2016,01,23,06,22,0.00
2016,01,23,06,23,0.00
2016,01,23,06,24,0.00
2016,01,23,06,25,0.00
2016,01,23,06,26,0.00
2016,01,23,06,27,0.00
2016,01,23,06,28,0.00
2016,01,23,06,29,0.00
2016,01,23,06,30,0.00
2016,01,23,06,31,0.00
2016,01,23,06,32,0.00
2016,01,23,06,33,0.00
2016,01,23,06,34,0.00
2016,01,23,06,35,0.00
2016,01,23,06,36,0.00
2016,01,23,06,37,0.00
2016,01,23,06,38,0.00
2016,01,23,06,39,0.00
2016,01,23,06,40,0.00
2016,01,23,06,41,0.00
2016,01,23,06,42,0.00
2016,01,23,06,43,0.00
2016,01,23,06,44,0.00
2016,01,23,06,45,0.00
2016,01,23,06,46,0.00
2016,01,23,06,47,0.00
2016,01,23,06,48,0.00
2016,01,23,06,49,0.00
2016,01,23,06,50,0.00
2016,01,23,06,51,0.00
2016,01,23,06,52,0.00
2016,01,23,06,53,0.00
2016,01,23,06,54,0.00
2016,01,23,06,55,0.00
2016,01,23,06,56,0.00
2016,01,23,06,57,0.00
2016,01,23,06,58,0.00
2016,01,23,06,59,0.00
2016,01,23,07,00,0.00
2016,01,23,07,01,0.00
2016,01,23,07,02,0.00
2016,01,23,07,03,0.00
2016,01,23,07,04,0.00
2016,01,23,07,05,0.00
2016,01,23,07,06,0.00
2016,01,23,07,07,0.00
2016,01,23,07,08,0.00
2016,01,23,07,09,0.00
2016,01,23,07,10,0.00
2016,01,23,07,11,0.00
2016,01,23,07,12,0.00
2016,01,23,07,13,0.00
2016,01,23,07,14,0.00
2016,01,23,07,15,0.00
2016,01,23,07,16,0.00
2016,01,23,07,17,0.00
2016,01,23,07,18,0.00
2016,01,23,07,19,0.00
2016,01,23,07,20,0.00
2016,01,23,07,21,0.00
2016,01,23,07,22,0.00
2016,01,23,07,23,0.00
2016,01,23,07,24,0.00
2016,01,23,07,25,0.00
2016,01,23,07,26,0.00
2016,01,23,07,27,0.00
2016,01,23,07,28,0.00
2016,01,23,07,29,0.00
2016,01,23,07,30,0.00
2016,01,23,07,31,0.00
2016,01,23,07,32,0.00
2016,01,23,07,33,0.00
2016,01,23,07,34,0.00
2016,01,23,07,35,0.00
2016,01,23,07,36,0.00
2016,01,23,07,37,0.00
2016,01,23,07,38,0.00
2016,01,23,07,39,0.00
2016,01,23,07,40,0.00
2016,01,23,07,41,0.00
2016,01,23,07,42,0.00
2016,01,23,07,43,0.00
2016,01,23,07,44,0.00
2016,01,23,07,45,0.00
2016,01,23,07,46,0.00
2016,01,23,07,47,0.00
2016,01,23,07,48,0.00
2016,01,23,07,49,0.00
2016,01,23,07,50,0.00
2016,01,23,07,51,0.00
2016,01,23,07,52,0.00
2016,01,23,07,53,0.00
2016,01,23,07,54,0.00
2016,01,23,07,55,0.00
2016,01,23,07,56,0.00
2016,01,23,07,57,0.00
2016,01,23,07,58,0.00
2016,01,23,07,59,0.00
2016,01,23,08,00,0.00
2016,01,23,08,01,0.00
2016,01,23,08,02,0.00
2016,01,23,08,03,0.00
2016,01,23,08,04,0.00
2016,01,23,08,05,0.00
2016,01,23,08,06,0.00
2016,01,23,08,07,0.00
2016,01,23,08,08,0.00
2016,01,23,08,09,0.00
2016,01,23,08,10,0.00
2016,01,23,08,11,0.00
2016,01,23,08,12,0.00
2016,01,23,08,13,0.50
2016,01,23,08,14,5.00
2016,01,23,08,15,5.00
2016,01,23,08,16,5.00
2016,01,23,08,17,5.00
2016,01,23,08,18,5.00
2016,01,23,08,19,5.00
2016,01,23,08,20,5.20
2016,01,23,08,21,7.00
2016,01,23,08,22,7.00
2016,01,23,08,23,7.00
2016,01,23,08,24,7.00
2016,01,23,08,25,7.00
2016,01,23,08,26,8.70
2016,01,23,08,27,9.00
2016,01,23,08,28,9.00
2016,01,23,08,29,9.00
2016,01,23,08,30,9.00
2016,01,23,08,31,9.00
2016,01,23,08,32,9.00
2016,01,23,08,33,9.00
2016,01,23,08,34,9.00
2016,01,23,08,35,9.00
2016,01,23,08,36,9.00
2016,01,23,08,37,10.00
2016,01,23,08,38,11.00
2016,01,23,08,39,11.00
2016,01,23,08,40,11.00
2016,01,23,08,41,11.00
2016,01,23,08,42,11.00
2016,01,23,08,43,11.00
2016,01,23,08,44,11.00
2016,01,23,08,45,11.00
2016,01,23,08,46,11.70
2016,01,23,08,47,12.00
2016,01,23,08,48,12.00
2016,01,23,08,49,12.00
2016,01,23,08,50,12.00
2016,01,23,08,51,12.00
2016,01,23,08,52,12.00
2016,01,23,08,53,12.00
2016,01,23,08,54,12.00
2016,01,23,08,55,14.00
2016,01,23,08,56,14.00
2016,01,23,08,57,14.70
2016,01,23,08,58,16.00
2016,01,23,08,59,17.20
2016,01,23,09,00,18.00
2016,01,23,09,01,18.00
2016,01,23,09,02,18.00
2016,01,23,09,03,18.00
2016,01,23,09,04,18.40
2016,01,23,09,05,19.00
2016,01,23,09,06,18.40
2016,01,23,09,07,18.00
2016,01,23,09,08,18.00
2016,01,23,09,09,18.00
2016,01,23,09,10,18.00
2016,01,23,09,11,18.00
2016,01,23,09,12,18.00
2016,01,23,09,13,18.60
2016,01,23,09,14,19.00
2016,01,23,09,15,19.00
2016,01,23,09,16,19.00
2016,01,23,09,17,19.00
2016,01,23,09,18,19.00
2016,01,23,09,19,20.00
2016,01,23,09,20,21.00
2016,01,23,09,21,21.00
2016,01,23,09,22,21.00
2016,01,23,09,23,21.00
2016,01,23,09,24,21.00
2016,01,23,09,25,21.70
2016,01,23,09,26,22.10
2016,01,23,09,27,21.00
2016,01,23,09,28,21.00
2016,01,23,09,29,21.00
2016,01,23,09,30,21.00
2016,01,23,09,31,21.00
2016,01,23,09,32,21.70
2016,01,23,09,33,23.00
2016,01,23,09,34,21.80
2016,01,23,09,35,21.00
2016,01,23,09,36,21.00
2016,01,23,09,37,21.20
2016,01,23,09,38,23.00
2016,01,23,09,39,24.00
2016,01,23,09,40,27.00
2016,01,23,09,41,26.80
2016,01,23,09,42,27.40
2016,01,23,09,43,26.30
2016,01,23,09,44,26.00
2016,01,23,09,45,26.00
2016,01,23,09,46,25.60
2016,01,23,09,47,25.00
2016,01,23,09,48,25.00
2016,01,23,09,49,25.80
2016,01,23,09,50,26.00
2016,01,23,09,51,26.20
2016,01,23,09,52,29.00
2016,01,23,09,53,31.30
2016,01,23,09,54,29.00
2016,01,23,09,55,29.20
2016,01,23,09,56,32.20
2016,01,23,09,57,33.00
2016,01,23,09,58,34.70
2016,01,23,09,59,33.00
2016,01,23,10,00,33.00
2016,01,23,10,01,33.00
2016,01,23,10,02,33.00
2016,01,23,10,03,37.50
2016,01,23,10,04,43.20
2016,01,23,10,05,42.00
2016,01,23,10,06,43.20
2016,01,23,10,07,46.70
2016,01,23,10,08,48.50
2016,01,23,10,09,52.80
2016,01,23,10,10,51.80
2016,01,23,10,11,49.30
2016,01,23,10,12,47.00
2016,01,23,10,13,47.00
2016,01,23,10,14,47.00
2016,01,23,10,15,48.00
2016,01,23,10,16,52.00
2016,01,23,10,17,56.80
2016,01,23,10,18,61.40
2016,01,23,10,19,59.90
2016,01,23,10,20,58.50
2016,01,23,10,21,61.80
2016,01,23,10,22,66.00
2016,01,23,10,23,64.70
2016,01,23,10,24,62.20
2016,01,23,10,25,62.80
2016,01,23,10,26,62.20
2016,01,23,10,27,63.00
2016,01,23,10,28,63.00
2016,01,23,10,29,64.90
2016,01,23,10,30,67.00
2016,01,23,10,31,69.10
2016,01,23,10,32,69.20
2016,01,23,10,33,69.00
2016,01,23,10,34,69.00
2016,01,23,10,35,69.00
2016,01,23,10,36,70.50
2016,01,23,10,37,72.00
2016,01,23,10,38,72.00
2016,01,23,10,39,70.30
2016,01,23,10,40,73.50
2016,01,23,10,41,69.20
2016,01,23,10,42,68.20
2016,01,23,10,43,67.00
2016,01,23,10,44,69.00
2016,01,23,10,45,71.20
2016,01,23,10,46,73.70
2016,01,23,10,47,70.00
2016,01,23,10,48,70.50
2016,01,23,10,49,71.20
2016,01,23,10,50,71.00
2016,01,23,10,51,72.00
2016,01,23,10,52,72.00
2016,01,23,10,53,72.00
2016,01,23,10,54,72.20
2016,01,23,10,55,73.50
2016,01,23,10,56,71.30
2016,01,23,10,57,70.00
2016,01,23,10,58,73.60
2016,01,23,10,59,78.20
2016,01,23,11,00,80.70
2016,01,23,11,01,83.00
2016,01,23,11,02,83.20
2016,01,23,11,03,83.70
2016,01,23,11,04,83.00
2016,01,23,11,05,83.60
2016,01,23,11,06,83.20
2016,01,23,11,07,83.80
2016,01,23,11,08,83.20
2016,01,23,11,09,84.50
2016,01,23,11,10,86.00
2016,01,23,11,11,86.00
2016,01,23,11,12,87.20
2016,01,23,11,13,89.50
2016,01,23,11,14,90.00
2016,01,23,11,15,90.10
2016,01,23,11,16,91.50
2016,01,23,11,17,93.70
2016,01,23,11,18,95.00
2016,01,23,11,19,96.20
2016,01,23,11,20,95.50
2016,01,23,11,21,95.00
2016,01,23,11,22,97.00
2016,01,23,11,23,97.20
2016,01,23,11,24,98.00
2016,01,23,11,25,98.00
2016,01,23,11,26,97.40
2016,01,23,11,27,97.70
2016,01,23,11,28,98.00
2016,01,23,11,29,99.80
2016,01,23,11,30,98.40
2016,01,23,11,31,98.90
2016,01,23,11,32,96.00
2016,01,23,11,33,95.00
2016,01,23,11,34,96.50
2016,01,23,11,35,95.30
2016,01,23,11,36,97.40
2016,01,23,11,37,100.00
2016,01,23,11,38,100.70
2016,01,23,11,39,102.00
2016,01,23,11,40,103.20
2016,01,23,11,41,99.60
2016,01,23,11,42,101.40
2016,01,23,11,43,104.10
2016,01,23,11,44,105.00
2016,01,23,11,45,107.10
2016,01,23,11,46,113.40
2016,01,23,11,47,117.20
2016,01,23,11,48,121.80
2016,01,23,11,49,126.40
2016,01,23,11,50,127.40
2016,01,23,11,51,131.00
2016,01,23,11,52,135.10
2016,01,23,11,53,137.90
2016,01,23,11,54,136.00
2016,01,23,11,55,134.00
2016,01,23,11,56,132.30
2016,01,23,11,57,126.60
2016,01,23,11,58,121.80
2016,01,23,11,59,117.30
2016,01,23,12,00,114.50
2016,01,23,12,01,110.50
2016,01,23,12,02,110.50
2016,01,23,12,03,109.30
2016,01,23,12,04,105.20
2016,01,23,12,05,107.40
2016,01,23,12,06,108.30
2016,01,23,12,07,107.00
2016,01,23,12,08,107.00
2016,01,23,12,09,110.00
2016,01,23,12,10,115.20
2016,01,23,12,11,113.20
2016,01,23,12,12,113.80
2016,01,23,12,13,113.00
2016,01,23,12,14,113.00
2016,01,23,12,15,113.60
2016,01,23,12,16,113.20
2016,01,23,12,17,113.90
2016,01,23,12,18,113.70
2016,01,23,12,19,111.00
2016,01,23,12,20,111.70
2016,01,23,12,21,112.00
2016,01,23,12,22,106.80
2016,01,23,12,23,98.80
2016,01,23,12,24,97.80
2016,01,23,12,25,97.10
2016,01,23,12,26,97.80
2016,01,23,12,27,96.30
2016,01,23,12,28,96.00
2016,01,23,12,29,97.60
2016,01,23,12,30,98.00
2016,01,23,12,31,98.00
2016,01,23,12,32,98.00
2016,01,23,12,33,98.50
2016,01,23,12,34,101.40
2016,01,23,12,35,107.50
2016,01,23,12,36,111.00
2016,01,23,12,37,108.00
2016,01,23,12,38,101.10
2016,01,23,12,39,100.30
2016,01,23,12,40,102.50
2016,01,23,12,41,104.30
2016,01,23,12,42,105.00
2016,01,23,12,43,105.00
2016,01,23,12,44,102.80
2016,01,23,12,45,100.20
2016,01,23,12,46,102.30
2016,01,23,12,47,106.00
2016,01,23,12,48,109.00
2016,01,23,12,49,111.00
2016,01,23,12,50,113.70
2016,01,23,12,51,114.00
2016,01,23,12,52,109.50
2016,01,23,12,53,105.20
2016,01,23,12,54,105.50
2016,01,23,12,55,106.30
2016,01,23,12,56,105.00
2016,01,23,12,57,108.60
2016,01,23,12,58,113.10
2016,01,23,12,59,117.40
2016,01,23,13,00,116.30
2016,01,23,13,01,118.00
2016,01,23,13,02,116.60
2016,01,23,13,03,113.50
2016,01,23,13,04,111.80
2016,01,23,13,05,112.50
2016,01,23,13,06,115.60
2016,01,23,13,07,116.00
2016,01,23,13,08,115.60
2016,01,23,13,09,112.90
2016,01,23,13,10,109.00
2016,01,23,13,11,108.20
2016,01,23,13,12,110.50
2016,01,23,13,13,111.00
2016,01,23,13,14,113.00
2016,01,23,13,15,113.80
2016,01,23,13,16,116.70
2016,01,23,13,17,119.00
2016,01,23,13,18,118.80
2016,01,23,13,19,115.10
2016,01,23,13,20,114.00
2016,01,23,13,21,113.90
2016,01,23,13,22,112.20
2016,01,23,13,23,107.10
2016,01,23,13,24,99.50
2016,01,23,13,25,90.80
2016,01,23,13,26,82.80
2016,01,23,13,27,79.30
2016,01,23,13,28,76.70
2016,01,23,13,29,73.00
2016,01,23,13,30,69.70
2016,01,23,13,31,69.50
2016,01,23,13,32,71.20
2016,01,23,13,33,73.50
2016,01,23,13,34,74.00
2016,01,23,13,35,76.30
2016,01,23,13,36,80.00
2016,01,23,13,37,84.20
2016,01,23,13,38,88.00
2016,01,23,13,39,90.60
2016,01,23,13,40,93.90
2016,01,23,13,41,95.00
2016,01,23,13,42,94.70
2016,01,23,13,43,92.50
2016,01,23,13,44,91.00
2016,01,23,13,45,91.00
2016,01,23,13,46,90.40
2016,01,23,13,47,90.00
2016,01,23,13,48,88.30
2016,01,23,13,49,86.00
2016,01,23,13,50,85.20
2016,01,23,13,51,82.30
2016,01,23,13,52,79.00
2016,01,23,13,53,76.40
2016,01,23,13,54,74.60
2016,01,23,13,55,72.30
2016,01,23,13,56,70.00
2016,01,23,13,57,70.00
2016,01,23,13,58,70.00
2016,01,23,13,59,70.00
2016,01,23,14,00,70.00
2016,01,23,14,01,70.00
2016,01,23,14,02,70.00
2016,01,23,14,03,74.20
2016,01,23,14,04,76.20
2016,01,23,14,05,77.80
2016,01,23,14,06,80.00
2016,01,23,14,07,81.00
2016,01,23,14,08,81.00
2016,01,23,14,09,81.00
2016,01,23,14,10,83.10
2016,01,23,14,11,84.50
2016,01,23,14,12,87.60
2016,01,23,14,13,91.50
2016,01,23,14,14,94.30
2016,01,23,14,15,96.50
2016,01,23,14,16,97.00
2016,01,23,14,17,98.30
2016,01,23,14,18,101.00
2016,01,23,14,19,105.80
2016,01,23,14,20,109.90
2016,01,23,14,21,112.80
2016,01,23,14,22,114.00
2016,01,23,14,23,114.00
2016,01,23,14,24,112.70
2016,01,23,14,25,110.50
2016,01,23,14,26,109.00
2016,01,23,14,27,108.00
2016,01,23,14,28,107.00
2016,01,23,14,29,107.00
2016,01,23,14,30,105.30
2016,01,23,14,31,103.80
2016,01,23,14,32,102.00
2016,01,23,14,33,101.30
2016,01,23,14,34,100.00
2016,01,23,14,35,98.80
2016,01,23,14,36,98.00
2016,01,23,14,37,98.00
2016,01,23,14,38,96.80
2016,01,23,14,39,94.00
2016,01,23,14,40,89.90
2016,01,23,14,41,85.50
2016,01,23,14,42,80.50
2016,01,23,14,43,75.20
2016,01,23,14,44,72.30
2016,01,23,14,45,70.00
2016,01,23,14,46,69.80
2016,01,23,14,47,68.30
2016,01,23,14,48,65.00
2016,01,23,14,49,62.40
2016,01,23,14,50,62.00
2016,01,23,14,51,62.80
2016,01,23,14,52,65.20
2016,01,23,14,53,67.00
2016,01,23,14,54,67.00
2016,01,23,14,55,67.00
2016,01,23,14,56,65.80
2016,01,23,14,57,65.00
2016,01,23,14,58,65.00
2016,01,23,14,59,65.00
2016,01,23,15,00,65.00
2016,01,23,15,01,64.20
2016,01,23,15,02,63.00
2016,01,23,15,03,61.20
2016,01,23,15,04,58.50
2016,01,23,15,05,54.60
2016,01,23,15,06,52.40
2016,01,23,15,07,48.50
2016,01,23,15,08,47.00
2016,01,23,15,09,47.00
2016,01,23,15,10,49.40
2016,01,23,15,11,53.20
2016,01,23,15,12,60.80
2016,01,23,15,13,67.30
2016,01,23,15,14,71.50
2016,01,23,15,15,78.90
2016,01,23,15,16,89.50
2016,01,23,15,17,102.20
2016,01,23,15,18,115.20
2016,01,23,15,19,125.70
2016,01,23,15,20,134.70
2016,01,23,15,21,142.50
2016,01,23,15,22,149.20
2016,01,23,15,23,152.00
2016,01,23,15,24,150.40
2016,01,23,15,25,146.80
2016,01,23,15,26,140.10
2016,01,23,15,27,133.10
2016,01,23,15,28,126.80
2016,01,23,15,29,121.20
2016,01,23,15,30,116.00
2016,01,23,15,31,114.00
2016,01,23,15,32,115.50
2016,01,23,15,33,117.80
2016,01,23,15,34,120.10
2016,01,23,15,35,120.20
2016,01,23,15,36,116.60
2016,01,23,15,37,113.50
2016,01,23,15,38,111.80
2016,01,23,15,39,111.00
2016,01,23,15,40,109.30
2016,01,23,15,41,109.00
2016,01,23,15,42,109.40
2016,01,23,15,43,110.20
2016,01,23,15,44,107.00
2016,01,23,15,45,100.40
2016,01,23,15,46,92.00
2016,01,23,15,47,84.90
2016,01,23,15,48,74.70
2016,01,23,15,49,60.00
2016,01,23,15,50,47.70
2016,01,23,15,51,40.50
2016,01,23,15,52,39.00
2016,01,23,15,53,39.00
2016,01,23,15,54,39.00
2016,01,23,15,55,39.00
2016,01,23,15,56,39.00
2016,01,23,15,57,38.30
2016,01,23,15,58,36.00
2016,01,23,15,59,33.70
2016,01,23,16,00,33.00
2016,01,23,16,01,32.10
2016,01,23,16,02,29.80
2016,01,23,16,03,27.50
2016,01,23,16,04,24.80
2016,01,23,16,05,22.10
2016,01,23,16,06,19.80
2016,01,23,16,07,19.00
2016,01,23,16,08,19.00
2016,01,23,16,09,18.00
2016,01,23,16,10,18.00
2016,01,23,16,11,17.30
2016,01,23,16,12,16.00
2016,01,23,16,13,16.00
2016,01,23,16,14,14.50
2016,01,23,16,15,14.00
2016,01,23,16,16,14.00
2016,01,23,16,17,14.00
2016,01,23,16,18,14.00
2016,01,23,16,19,14.00
2016,01,23,16,20,15.30
2016,01,23,16,21,16.00
2016,01,23,16,22,17.70
2016,01,23,16,23,18.00
2016,01,23,16,24,18.00
2016,01,23,16,25,18.00
2016,01,23,16,26,18.00
2016,01,23,16,27,18.00
2016,01,23,16,28,18.00
2016,01,23,16,29,18.90
2016,01,23,16,30,19.20
2016,01,23,16,31,21.50
2016,01,23,16,32,23.70
2016,01,23,16,33,25.50
2016,01,23,16,34,26.00
2016,01,23,16,35,26.00
2016,01,23,16,36,25.10
2016,01,23,16,37,25.00
2016,01,23,16,38,24.00
2016,01,23,16,39,20.20
2016,01,23,16,40,18.50
2016,01,23,16,41,18.00
2016,01,23,16,42,18.00
2016,01,23,16,43,16.30
2016,01,23,16,44,16.00
2016,01,23,16,45,16.00
2016,01,23,16,46,15.20
2016,01,23,16,47,14.00
2016,01,23,16,48,14.00
2016,01,23,16,49,14.00
2016,01,23,16,50,14.00
2016,01,23,16,51,12.10
2016,01,23,16,52,11.80
2016,01,23,16,53,11.00
2016,01,23,16,54,10.00
2016,01,23,16,55,7.70
2016,01,23,16,56,5.50
2016,01,23,16,57,5.00
2016,01,23,16,58,0.00
2016,01,23,16,59,0.00
2016,01,23,17,00,0.00
2016,01,23,17,01,0.00
2016,01,23,17,02,0.00
2016,01,23,17,03,0.00
2016,01,23,17,04,0.00
2016,01,23,17,05,0.00
2016,01,23,17,06,0.00
2016,01,23,17,07,0.00
2016,01,23,17,08,0.00
2016,01,23,17,09,0.00
2016,01,23,17,10,0.00
2016,01,23,17,11,0.00
2016,01,23,17,12,0.00
2016,01,23,17,13,0.00
2016,01,23,17,14,0.00
2016,01,23,17,15,0.00
2016,01,23,17,16,0.00
2016,01,23,17,17,0.00
2016,01,23,17,18,0.00
2016,01,23,17,19,0.00
2016,01,23,17,20,0.00
2016,01,23,17,21,0.00
2016,01,23,17,22,0.00
2016,01,23,17,23,0.00
2016,01,23,17,24,0.00
2016,01,23,17,25,0.00
2016,01,23,17,26,0.00
2016,01,23,17,27,0.00
2016,01,23,17,28,0.00
2016,01,23,17,29,0.00
2016,01,23,17,30,0.00
2016,01,23,17,31,0.00
2016,01,23,17,32,0.00
2016,01,23,17,33,0.00
2016,01,23,17,34,0.00
2016,01,23,17,35,0.00
2016,01,23,17,36,0.00
2016,01,23,17,37,0.00